Regional Weather Roundup
Issued by NWS

Home | Current Version | Previous Version | Graphics & Text | Print | Product List | Glossary On
Versions: 1 2 3 4 5 6 7 8 9 10 11 12 13 14 15 16 17 18 19 20 21 22 23 24 25 26 27 28 29 30 31 32 33 34 35 36 37 38 39 40 41 42 43 44 45 46 47 48 49 50
000
ASUS44 KMEG 010510
RWRTN
TENNESSEE HOURLY STATE WEATHER ROUNDUP
NATIONAL WEATHER SERVICE MEMPHIS TN
1200 AM CDT THU SEP 01 2016

TNZ002-004-019-021-049-052-054-088>092-010600-
WEST TENNESSEE

CITY           SKY/WX    TMP DP  RH WIND       PRES   REMARKS
MEMPHIS INTL   PTCLDY    82  72  71 N7        29.96S
NWS MEMPHIS      N/A     80 N/A N/A MISG        N/A
JACKSON        CLEAR     76  73  91 CALM      29.97S
DYERSBURG      CLEAR     75  70  83 MISG        N/A
UNION CITY     CLEAR     73  73 100 N5        29.98S
PARIS          CLEAR     72  70  94 N6        29.99S
HUNTINGDON     CLEAR     75  72  88 N5        29.97R
LEXINGTON      CLEAR     75  73  94 CALM      29.96S
$$

TNZ008-025-027-028-033-062-065-066-010600-
NORTH MIDDLE TENNESSEE

CITY           SKY/WX    TMP DP  RH WIND       PRES   REMARKS
NASHVILLE      CLEAR     77  72  84 CALM      29.96S
PORTLAND       PTCLDY    73  72  94 CALM      29.97S FOG
CLARKSVILLE    CLEAR     75  71  87 N8        29.97S
COOKEVILLE     CLEAR     72  72 100 CALM      29.96S
GALLATIN       PTCLDY    75  72  88 CALM      29.98S
CROSSVILLE     PTCLDY    69  68  96 CALM      30.01F FOG
$$

TNZ061-075-076-078-094-096-097-010600-
SOUTH MIDDLE TENNESSEE

CITY           SKY/WX    TMP DP  RH WIND       PRES   REMARKS
FAYETTEVILLE   CLOUDY    75  72  88 N5        29.96S
TULLAHOMA      CLEAR     73  70  88 CALM      29.98F
WINCHESTER     CLEAR     70  70 100 CALM      29.96F
MCMINNVILLE    CLEAR     73  73 100 CALM      29.96F
COLUMBIA       CLEAR    N/A N/A N/A CALM      29.95S
SHELBYVILLE    CLEAR     73  73 100 CALM      29.97S
$$

TNZ017-018-042-046-047-010600-
NORTHEAST TENNESSEE

CITY           SKY/WX    TMP DP  RH WIND       PRES   REMARKS
TRI CITIES     PTCLDY    70  68  93 CALM      29.98S
ELIZABETHTON     N/A     70  68  94 CALM      29.98S
$$

TNZ012-013-036-069-073-074-010600-
CENTRAL EAST TENNESSEE

CITY           SKY/WX    TMP DP  RH WIND       PRES   REMARKS
KNOXVILLE      MOCLDY    79  69  71 CALM      29.94S
OAK RIDGE      PTCLDY    78  70  76 CALM      29.96S
DOWNTOWN KNOXV CLOUDY    75  73  94 CALM      29.94F
GATLINBURG     CLEAR     73  66  78 CALM      29.95S
MORRISTOWN     CLOUDY    77  68  73 CALM      29.96S
JACKSBORO      CLEAR     72  70  94 CALM      29.99S
$$

TNZ083-085-099-010600-
SOUTHEAST TENNESSEE

CITY           SKY/WX    TMP DP  RH WIND       PRES   REMARKS
CHATTANOOGA    CLEAR     77  69  76 N5        29.94F
$$

SKY/WX REPORTED AS FAIR MEANS FEW OR NO CLOUDS BELOW
12 THOUSAND FEET.





USA.gov is the U.S. government's official web portal to all federal, state and local government web resources and services.